Weather History for Coatesville, PA

Change the Weather History Date:

Wednesday, November 7, 2012

  Actual Average (KLNS) Record (KLNS)
Temperature  
Mean Temperature 36 °F -  
Max Temperature 39 °F 54 °F 69 °F (1980)
Min Temperature 33 °F 36 °F 24 °F (1982)
Degree Days  
Heating Degree Days 29    
Moisture  
Dew Point 28 °F    
Average Humidity 74    
Maximum Humidity 100    
Minimum Humidity 56    
Precipitation  
Precipitation 1.64 in - - ()
Sea Level Pressure  
Sea Level Pressure 29.92 in    
Wind  
Wind Speed 9 mph (North)    
Max Wind Speed 18 mph    
Max Gust Speed 24 mph    
Visibility 8 miles    
Events Snow    
Averages and records for this station are not official NWS values.
T = Trace of Precipitation, MM = Missing Value Source: NWS Daily Summary

Daily Weather History Graph

Daily Weather History Graph

Search for Another Location

Airport:

Trip Planner

Search our weather history database for the weather conditions in past years. The results will help you decide how hot, cold, wet, or windy it might be!

Date:

Astronomy

Nov. 07, 2012 Rise Set
Actual Time 6:39 AM EST 4:53 PM EST
Civil Twilight 6:11 AM EST 5:22 PM EST
Nautical Twilight 5:39 AM EST 5:54 PM EST
Astronomical Twilight 5:07 AM EST 6:26 PM EST
Moon No Moon Rise 1:01 PM EST (11/7)
Length of Visible Light 11h 11m
Length of Day
10h 14m
Last Quarter, 43% of the Moon is Illuminated
Nov 7
Last Quarter
Nov 13
New
Nov 20
First Quarter
Nov 28
Full
Dec 6
Last Quarter

Hourly Weather History & Observations

Time (EST) Temp. Windchill Dew Point Humidity Pressure Visibility Wind Dir Wind Speed Gust Speed Precip Events Conditions
12:15 AM 33.8 °F 27.7 °F 23.0 °F 65% 30.04 in 10.0 mi NNE 6.9 mph - N/A   Clear
12:35 AM 35.6 °F 30.7 °F 23.0 °F 60% 30.04 in 10.0 mi NNE 5.8 mph - N/A   Clear
12:55 AM 35.6 °F 29.9 °F 23.0 °F 60% 30.03 in 10.0 mi North 6.9 mph - N/A   Mostly Cloudy
1:15 AM 35.6 °F 28.6 °F 23.0 °F 60% 30.00 in 10.0 mi North 9.2 mph - N/A   Mostly Cloudy
1:35 AM 35.6 °F 29.9 °F 23.0 °F 60% 29.99 in 10.0 mi NNE 6.9 mph - N/A   Partly Cloudy
1:55 AM 35.6 °F 28.6 °F 23.0 °F 60% 29.99 in 10.0 mi NNE 9.2 mph - N/A   Clear
2:15 AM 35.6 °F 29.2 °F 24.8 °F 65% 29.99 in 10.0 mi NNE 8.1 mph - N/A   Partly Cloudy
2:35 AM 35.6 °F 30.7 °F 24.8 °F 65% 29.98 in 10.0 mi NNE 5.8 mph - N/A   Scattered Clouds
2:55 AM 35.6 °F 28.6 °F 24.8 °F 65% 29.97 in 10.0 mi NNE 9.2 mph - N/A   Mostly Cloudy
3:15 AM 35.6 °F 28.6 °F 26.6 °F 70% 29.95 in 10.0 mi NNE 9.2 mph - N/A   Overcast
3:55 AM 35.6 °F 29.2 °F 26.6 °F 70% 29.94 in 10.0 mi NNE 8.1 mph - N/A   Scattered Clouds
4:15 AM 35.6 °F 27.5 °F 26.6 °F 70% 29.94 in 10.0 mi North 11.5 mph 16.1 mph N/A   Clear
4:35 AM 35.6 °F 28.6 °F 24.8 °F 65% 29.93 in 10.0 mi NNE 9.2 mph 19.6 mph N/A   Partly Cloudy
4:55 AM 35.6 °F 29.2 °F 24.8 °F 65% 29.93 in 10.0 mi NNE 8.1 mph 17.3 mph N/A   Clear
5:15 AM 35.6 °F 28.6 °F 24.8 °F 65% 29.93 in 10.0 mi NNE 9.2 mph - N/A   Clear
5:35 AM 35.6 °F 30.7 °F 24.8 °F 65% 29.94 in 10.0 mi NE 5.8 mph - N/A   Clear
5:55 AM 35.6 °F 28.6 °F 24.8 °F 65% 29.94 in 10.0 mi NNE 9.2 mph - N/A   Clear
6:15 AM 35.6 °F 28.6 °F 23.0 °F 60% 29.95 in 10.0 mi NNE 9.2 mph - N/A   Clear
6:35 AM 35.6 °F 28.0 °F 21.2 °F 56% 29.95 in 10.0 mi NNE 10.4 mph 17.3 mph N/A   Partly Cloudy
6:55 AM 33.8 °F 27.0 °F 19.4 °F 56% 29.95 in 10.0 mi NNE 8.1 mph - N/A   Clear
7:15 AM 33.8 °F 27.0 °F 21.2 °F 60% 29.96 in 10.0 mi NNE 8.1 mph - N/A   Clear
7:35 AM 33.8 °F 25.3 °F 21.2 °F 60% 29.95 in 10.0 mi NNE 11.5 mph 17.3 mph N/A   Clear
7:55 AM 35.6 °F 27.5 °F 23.0 °F 60% 29.95 in 10.0 mi NNE 11.5 mph 18.4 mph N/A   Clear
8:15 AM 35.6 °F 29.2 °F 23.0 °F 60% 29.95 in 10.0 mi NNE 8.1 mph - N/A   Clear
8:35 AM 35.6 °F 28.0 °F 24.8 °F 65% 29.94 in 10.0 mi NNE 10.4 mph 19.6 mph N/A   Clear
8:55 AM 35.6 °F 27.5 °F 24.8 °F 65% 29.93 in 10.0 mi NNE 11.5 mph 16.1 mph N/A   Clear
9:15 AM 35.6 °F 27.1 °F 26.6 °F 70% 29.93 in 10.0 mi North 12.7 mph 18.4 mph N/A   Clear
9:35 AM 35.6 °F 27.1 °F 26.6 °F 70% 29.92 in 10.0 mi North 12.7 mph 20.7 mph N/A   Clear
9:55 AM 37.4 °F 28.9 °F 26.6 °F 65% 29.91 in 10.0 mi NNE 13.8 mph 21.9 mph N/A   Clear
10:15 AM 37.4 °F 28.9 °F 28.4 °F 70% 29.92 in 10.0 mi NNE 13.8 mph 18.4 mph N/A   Partly Cloudy
10:35 AM 37.4 °F 29.3 °F 28.4 °F 70% 29.92 in 10.0 mi NNE 12.7 mph 23.0 mph N/A   Partly Cloudy
11:15 AM 39.2 °F 32.0 °F 28.4 °F 65% 29.91 in 10.0 mi NNE 11.5 mph 19.6 mph N/A   Clear
11:35 AM 39.2 °F 32.5 °F 28.4 °F 65% 29.90 in 10.0 mi NNE 10.4 mph 18.4 mph N/A   Clear
11:55 AM 39.2 °F 33.6 °F 28.4 °F 65% 29.90 in 10.0 mi NNE 8.1 mph 18.4 mph N/A   Clear
12:15 PM 39.2 °F 32.5 °F 28.4 °F 65% 29.90 in 10.0 mi NNE 10.4 mph 20.7 mph N/A   Mostly Cloudy
12:35 PM 39.2 °F 35.9 °F 28.4 °F 65% 29.90 in 10.0 mi NE 4.6 mph - N/A   Mostly Cloudy
1:15 PM 39.2 °F 33.0 °F 28.4 °F 65% 29.89 in 10.0 mi North 9.2 mph - N/A   Scattered Clouds
1:35 PM 39.2 °F 32.5 °F 28.4 °F 65% 29.89 in 10.0 mi North 10.4 mph 19.6 mph N/A   Overcast
2:15 PM 39.2 °F 30.5 °F 28.4 °F 65% 29.89 in 10.0 mi North 16.1 mph 20.7 mph N/A   Clear
2:35 PM 39.2 °F 29.8 °F 30.2 °F 70% 29.89 in 10.0 mi North 18.4 mph 24.2 mph N/A   Clear
2:55 PM 37.4 °F 28.9 °F 30.2 °F 75% 29.90 in 10.0 mi North 13.8 mph 19.6 mph N/A   Partly Cloudy
3:15 PM 39.2 °F 32.0 °F 30.2 °F 70% 29.90 in 10.0 mi North 11.5 mph 19.6 mph N/A   Partly Cloudy
3:35 PM 39.2 °F 33.0 °F 30.2 °F 70% 29.90 in 10.0 mi North 9.2 mph - N/A   Partly Cloudy
3:55 PM 39.2 °F 31.6 °F 32.0 °F 75% 29.90 in 10.0 mi North 12.7 mph 17.3 mph N/A   Scattered Clouds
4:15 PM 37.4 °F 30.3 °F 32.0 °F 81% 29.90 in 9.0 mi North 10.4 mph - N/A Snow Light Snow
4:35 PM 35.6 °F 28.0 °F 33.8 °F 93% 29.90 in 7.0 mi North 10.4 mph - N/A   Scattered Clouds
4:55 PM 35.6 °F 28.6 °F 33.8 °F 93% 29.90 in 6.0 mi North 9.2 mph 17.3 mph 0.01 in   Mostly Cloudy
5:15 PM 35.6 °F 27.5 °F 33.8 °F 93% 29.90 in 4.0 mi North 11.5 mph 18.4 mph 0.03 in Snow Light Snow
5:35 PM 35.6 °F 27.5 °F 33.8 °F 93% 29.90 in 5.0 mi NNW 11.5 mph - 0.10 in   Overcast
6:15 PM 33.8 °F 25.3 °F 33.8 °F 100% 29.90 in 2.5 mi NNW 11.5 mph 17.3 mph 0.08 in Snow Light Snow
6:35 PM 33.8 °F 24.8 °F 33.8 °F 100% 29.90 in 1.5 mi NNW 12.7 mph 18.4 mph 0.27 in Snow Light Snow
6:55 PM 33.8 °F 25.8 °F 33.8 °F 100% 29.90 in 2.0 mi NNW 10.4 mph - 0.45 in Snow Light Snow
7:15 PM 33.8 °F 25.3 °F 33.8 °F 100% 29.90 in 3.0 mi NNW 11.5 mph - 0.09 in Snow Light Snow
7:35 PM 33.8 °F 24.8 °F 32.0 °F 93% 29.89 in 2.5 mi NNW 12.7 mph - 0.18 in Snow Light Snow
7:55 PM 35.6 °F 29.2 °F 32.0 °F 87% 29.90 in 7.0 mi North 8.1 mph - 0.20 in Snow Light Snow
8:15 PM 35.6 °F 27.1 °F 32.0 °F 87% 29.90 in 4.0 mi North 12.7 mph 23.0 mph 0.01 in Snow Light Snow
8:35 PM 35.6 °F 27.5 °F 32.0 °F 87% 29.90 in 2.0 mi North 11.5 mph 19.6 mph 0.11 in Snow Light Snow
8:55 PM 33.8 °F 26.4 °F 32.0 °F 93% 29.90 in 1.2 mi North 9.2 mph 21.9 mph 0.38 in Snow Light Snow
9:15 PM 35.6 °F 27.5 °F 32.0 °F 87% 29.90 in 3.0 mi North 11.5 mph 17.3 mph 0.05 in Snow Light Snow
9:55 PM 35.6 °F 28.6 °F 32.0 °F 87% 29.89 in 5.0 mi NNW 9.2 mph 18.4 mph 0.14 in Snow Light Snow
10:15 PM 33.8 °F 24.3 °F 32.0 °F 93% 29.88 in 8.0 mi NNW 13.8 mph 19.6 mph 0.01 in Snow Light Snow
10:35 PM 33.8 °F 24.8 °F 32.0 °F 93% 29.88 in 5.0 mi North 12.7 mph 18.4 mph 0.07 in Snow Light Snow
10:55 PM 33.8 °F 23.9 °F 32.0 °F 93% 29.87 in 3.0 mi North 15.0 mph 19.6 mph 0.15 in Snow Light Snow
11:15 PM 33.8 °F 24.3 °F 32.0 °F 93% 29.86 in 2.5 mi NNW 13.8 mph 19.6 mph 0.04 in Snow Light Snow
11:35 PM 33.8 °F 23.5 °F 32.0 °F 93% 29.85 in 1.0 mi NNW 16.1 mph 20.7 mph 0.21 in   Overcast